Wind_Speed
21 18 18 18 19 18 17 15 13 12 11 11 13 14 14 14 16 17 18 18 17 16 15 16 18 19 20 20 21 21 22 22 22 22 23 23 23 24 24 23 22 23 24 24 24 24 24 23 22 22 20 18 17 17 17 17 17 17 17 18 19 19 20 20 19 20 21 22 23 23 24 25 25 26 26 26 25 24 24 24 24 23 22 23 23
21 21 20 20 19 18 16 14 14 14 13 11 12 13 14 14 14 15 16 18 18 17 16 16 17 19 20 20 21 21 22 22 22 22 22 23 23 24 24 23 22 23 24 25 25 25 25 24 24 24 22 20 19 19 19 18 18 19 19 19 20 20 21 21 21 22 22 23 24 24 25 25 26 27 27 27 26 25 24 25 25 25 24 24 25
22 22 22 20 19 18 17 15 15 15 15 13 12 13 14 14 14 15 16 17 17 17 17 17 17 19 20 21 21 21 22 22 23 23 23 23 24 24 24 23 23 23 24 25 26 26 26 25 26 26 24 21 21 21 20 20 20 20 20 20 20 21 21 22 22 22 23 23 24 24 25 25 26 28 28 27 26 25 25 25 25 25 25 25 25
22 22 22 22 19 18 19 18 17 17 17 16 15 14 14 15 15 15 15 16 17 18 18 17 17 18 19 21 22 22 22 22 23 23 23 24 25 25 25 24 23 24 24 26 26 26 26 26 27 27 25 23 23 23 22 21 21 21 21 21 21 22 22 22 22 22 22 23 23 24 25 25 26 27 27 27 26 26 26 26 27 27 27 26 26
22 21 22 23 21 21 21 20 18 19 19 18 17 16 15 15 16 16 15 15 17 18 18 18 18 18 19 20 22 23 23 23 23 24 24 25 25 26 25 25 24 24 25 26 26 26 26 26 27 27 26 24 24 24 23 23 22 22 22 22 22 22 22 22 22 22 22 22 23 23 24 25 25 26 27 27 27 26 27 28 28 29 28 27 28
24 21 21 21 22 21 21 21 20 21 22 21 19 17 17 17 18 19 18 17 17 18 18 18 18 18 19 20 21 22 23 24 24 24 24 25 26 26 26 26 26 25 26 26 26 26 26 26 27 27 26 25 25 25 24 24 24 23 23 23 23 23 22 22 22 22 22 22 22 22 23 24 25 25 26 28 28 28 28 29 29 28 27 27 28
21 18 19 19 20 20 21 21 22 22 22 22 20 19 20 21 22 22 21 19 18 18 18 18 17 18 19 20 21 22 23 24 24 25 25 25 26 27 28 28 27 26 26 26 26 26 26 26 27 27 26 25 25 26 26 26 25 24 24 24 25 24 23 23 23 22 22 22 22 22 23 23 24 25 26 27 28 29 29 29 29 27 27 27 28
16 16 18 18 19 20 20 21 21 21 21 22 23 22 22 23 24 25 23 21 20 19 18 17 17 17 18 19 21 22 22 23 24 26 27 27 28 28 29 29 28 28 27 27 27 27 26 27 27 27 27 26 26 27 27 27 26 26 26 26 26 25 25 25 24 24 24 24 23 23 23 23 24 25 26 27 28 29 29 30 29 28 28 28 29
11 14 16 17 18 19 20 20 20 19 20 22 24 23 24 25 25 24 23 22 21 20 19 18 17 17 18 19 20 21 22 23 25 26 27 28 28 29 30 30 30 29 28 28 28 27 27 27 28 28 28 28 28 28 29 29 28 28 28 28 27 27 27 26 26 26 26 26 25 24 24 24 24 26 27 28 28 28 29 30 30 30 30 30 29
7 10 12 13 14 15 17 19 19 19 20 20 20 21 21 21 21 20 21 21 20 20 20 19 19 19 19 20 21 22 23 23 24 25 26 27 28 29 30 31 30 29 28 28 28 27 27 27 28 29 30 30 30 30 30 30 30 29 29 29 29 29 28 28 27 27 27 27 26 26 25 25 25 27 28 29 29 29 29 30 30 30 31 30 30
8 9 10 10 11 12 14 16 17 19 19 18 17 18 18 18 18 19 19 19 19 20 20 20 20 20 21 22 23 24 25 25 25 25 27 28 29 29 30 30 29 29 29 29 29 28 28 28 28 29 30 30 31 31 32 32 32 31 31 30 31 31 30 29 28 28 28 28 27 26 26 26 27 28 29 29 29 29 30 30 30 31 32 31 30
8 9 9 10 11 11 12 13 16 18 18 17 16 16 17 17 17 17 16 17 18 19 18 18 19 19 20 23 25 26 27 27 28 29 30 30 30 29 28 28 27 28 29 30 30 30 29 28 28 29 29 30 31 32 33 33 33 33 33 33 32 32 32 31 30 30 29 29 29 29 28 29 29 29 30 31 31 30 30 30 31 32 33 32 33
7 8 9 10 11 10 10 12 14 15 16 16 16 16 15 15 14 12 12 14 16 17 17 17 17 17 17 18 21 25 27 29 31 32 32 31 30 29 28 28 28 29 30 31 32 33 32 31 30 30 30 31 32 33 33 34 35 35 35 34 34 33 32 31 31 31 31 32 32 33 33 33 31 30 31 32 32 31 31 31 33 33 33 34 34
7 8 9 10 11 12 12 12 12 12 13 14 15 15 13 13 13 11 10 11 14 16 17 16 15 15 15 16 17 20 24 29 33 34 34 33 32 31 29 28 29 30 31 32 33 34 35 35 34 33 33 33 34 35 35 35 36 36 36 36 35 33 32 31 31 32 32 33 34 33 33 36 35 34 33 32 32 32 32 33 34 34 35 35 35
8 8 8 10 12 13 13 13 14 14 13 12 12 12 11 11 11 11 10 12 14 16 16 16 15 15 15 16 17 18 21 24 28 31 32 33 33 32 31 30 30 32 33 33 33 34 36 37 36 35 36 36 36 37 37 37 37 37 37 37 35 34 33 33 33 34 35 35 34 33 32 34 35 36 36 34 33 34 34 35 35 36 36 36 36
11 10 11 12 12 13 14 15 15 14 14 13 11 11 11 11 11 11 12 14 15 15 16 16 16 16 16 16 17 18 20 23 25 25 25 26 29 31 30 31 33 34 34 34 35 35 36 37 37 37 37 38 39 39 40 40 39 39 38 37 36 37 36 35 35 37 37 36 35 34 34 34 34 36 37 37 36 36 37 37 37 38 39 38 37
11 11 12 13 13 14 14 14 13 12 11 11 11 10 10 10 10 11 12 13 13 13 14 14 15 16 16 17 17 18 20 22 23 22 20 20 23 25 25 25 27 28 28 28 29 30 30 32 34 36 36 38 39 40 41 42 42 41 42 40 39 39 37 36 38 40 40 40 38 36 36 37 37 37 38 40 40 39 40 40 39 41 42 41 40
10 11 11 12 12 11 10 9 8 7 8 9 9 10 9 9 9 10 10 11 11 11 11 12 12 13 14 15 16 17 19 20 20 19 17 16 17 19 21 21 21 22 22 23 22 22 23 25 27 30 31 32 33 34 36 39 40 40 43 44 43 40 37 38 41 41 41 41 39 38 39 39 39 39 40 41 42 42 42 42 42 43 45 44 43
11 11 12 11 12 12 11 10 10 9 8 7 7 8 9 10 10 10 10 10 10 10 11 11 11 12 12 13 14 16 18 19 19 18 17 16 15 16 19 20 21 22 21 21 22 22 23 25 26 27 27 27 28 30 33 35 37 37 38 41 42 39 37 40 41 40 40 40 39 41 42 41 41 42 42 44 45 44 44 44 44 46 47 47 47
13 13 13 13 15 16 15 13 11 9 9 9 9 10 11 11 11 12 12 12 12 12 13 13 13 13 14 14 15 16 17 18 19 18 17 16 15 16 17 19 20 21 22 22 23 24 25 26 27 28 27 27 28 30 32 33 34 33 32 33 35 37 38 40 38 38 40 41 41 42 43 42 43 43 43 44 45 45 45 45 45 46 48 50 51
13 12 12 13 15 15 12 9 8 9 10 11 12 12 12 13 13 14 14 14 14 15 15 16 16 16 15 16 17 18 19 19 20 20 19 18 17 17 17 18 19 20 21 22 24 25 26 27 28 29 29 29 29 30 31 32 32 30 27 27 28 30 33 34 34 35 38 39 38 38 38 39 40 40 40 41 42 42 44 44 44 45 46 49 50
13 13 13 14 15 15 14 13 11 11 12 12 13 13 14 14 15 16 16 17 18 18 18 18 18 18 17 17 18 19 20 21 22 22 22 21 21 20 20 21 20 20 21 22 24 25 26 28 29 29 30 30 30 30 30 31 31 30 28 26 26 27 29 30 31 33 35 35 35 35 35 35 37 37 37 37 38 39 40 40 40 41 42 43 44
13 14 14 15 15 16 16 15 15 14 14 13 14 15 16 17 17 18 18 19 20 20 20 20 20 20 20 20 20 20 20 21 22 23 24 24 23 23 23 23 24 23 23 23 24 25 26 27 28 29 30 30 30 30 30 30 30 29 28 27 27 28 30 31 32 33 34 35 35 34 34 35 36 36 36 36 36 36 37 37 37 37 38 39 39
14 14 14 14 15 16 17 17 17 17 16 15 15 16 17 18 18 19 19 20 21 21 21 21 21 21 22 22 22 22 21 21 22 23 24 24 24 24 24 25 25 25 26 26 26 26 26 27 27 28 29 30 30 31 31 31 31 30 30 29 29 29 30 31 32 33 34 35 35 35 34 35 36 37 37 37 37 38 38 38 38 38 38 37 37
16 15 15 14 14 15 16 16 17 17 17 17 17 18 18 18 19 19 20 20 21 21 22 22 22 22 23 23 23 23 23 22 22 23 23 23 24 24 24 24 24 25 26 26 27 27 27 28 28 28 29 29 30 31 31 32 31 31 31 31 31 31 31 32 33 33 33 34 35 35 34 34 35 36 37 37 37 39 40 39 39 39 38 38 38
17 17 17 16 16 16 16 17 17 18 19 19 19 20 20 20 20 21 21 21 22 22 22 23 23 23 24 24 24 24 24 24 24 24 24 24 24 24 24 24 24 24 24 25 26 27 28 29 29 30 30 30 31 31 31 32 32 32 32 32 32 33 33 33 33 33 32 32 33 34 33 33 34 35 35 35 36 38 39 39 39 39 39 39 39
17 18 18 19 19 19 19 19 20 20 20 20 20 21 22 22 23 23 23 24 24 24 24 25 25 25 26 26 26 26 26 26 26 26 25 25 25 25 25 25 25 25 25 25 26 27 28 29 29 30 31 31 31 31 32 32 33 33 33 33 33 33 33 33 33 33 33 32 32 33 33 33 33 33 34 34 34 35 37 38 37 38 39 40 39
15 17 18 19 21 21 22 22 23 23 23 23 22 22 22 23 24 25 25 26 26 27 27 27 27 27 28 28 28 28 28 28 28 28 27 27 27 27 27 27 27 27 27 27 27 27 28 28 29 30 30 31 31 32 32 32 33 33 33 33 34 33 33 34 33 33 33 32 32 32 32 32 33 33 33 33 33 34 35 36 36 37 37 38 39
13 14 16 18 20 22 23 23 24 25 25 25 25 24 24 24 25 25 26 27 27 28 28 29 29 29 29 29 29 29 28 28 28 28 28 28 28 28 28 29 29 29 29 29 29 29 29 29 29 29 30 30 31 31 32 33 33 34 34 34 34 34 34 34 33 33 33 33 32 32 32 32 32 32 32 33 33 34 34 35 36 36 36 37 37
13 13 14 16 18 19 21 23 24 24 25 24 24 24 25 26 26 27 27 28 29 29 29 30 30 30 30 30 30 30 29 29 29 29 29 29 29 30 30 30 30 30 30 30 30 30 30 30 31 31 31 31 31 31 32 32 33 34 35 35 35 35 35 34 34 34 34 33 32 32 32 32 31 31 32 32 33 34 34 34 35 36 36 36 35
16 16 16 16 17 18 20 21 22 23 24 24 24 25 25 26 27 28 28 29 30 31 31 31 31 31 31 31 31 31 31 31 31 31 31 31 31 31 31 30 30 30 31 31 31 31 31 31 32 32 32 32 32 32 32 33 33 34 34 35 35 35 35 35 35 34 34 33 32 32 32 32 32 31 31 31 32 33 34 34 34 35 35 35 34
18 19 19 18 19 19 20 21 21 22 23 23 24 25 26 27 28 29 29 30 31 32 33 34 34 34 34 33 33 32 32 32 33 33 34 34 34 34 33 32 32 31 31 32 32 32 32 32 32 33 33 33 34 34 34 34 34 34 34 34 34 35 35 35 35 35 34 33 33 32 31 31 31 31 31 31 31 32 32 32 33 33 33 33 33
20 20 20 20 20 21 21 21 22 22 23 24 25 26 27 27 28 28 29 30 32 33 34 35 36 37 37 37 36 35 34 34 34 35 35 36 36 36 36 35 34 34 33 33 33 33 32 33 33 33 34 34 34 34 35 35 35 35 35 35 35 34 34 34 35 35 34 34 33 32 31 31 30 30 30 30 30 30 30 30 31 30 30 30 30
22 21 20 21 21 22 23 24 25 25 25 26 27 27 28 28 29 28 29 29 31 32 34 35 36 38 39 40 40 39 38 38 37 37 37 37 38 38 38 38 38 37 37 36 35 34 34 34 34 34 34 34 35 35 35 36 36 36 36 35 35 35 35 34 34 34 34 34 33 33 32 31 30 29 29 28 28 28 28 28 28 28 28 27 28
23 22 21 22 22 23 24 26 28 28 28 28 28 28 29 29 29 29 29 29 29 31 33 35 37 38 39 39 40 40 41 41 41 40 40 39 40 40 40 39 39 39 39 38 38 37 36 35 35 35 35 36 36 36 36 36 36 36 36 36 36 36 35 35 34 34 33 33 33 33 32 31 30 29 28 28 27 26 26 26 26 26 26 25 25
23 22 22 23 24 25 26 28 30 31 31 31 30 29 29 30 30 30 31 31 31 31 32 34 36 38 39 39 39 39 40 41 42 42 42 42 42 42 41 41 40 40 40 39 39 38 38 37 37 37 36 37 37 37 37 37 37 37 37 36 36 36 36 36 35 34 34 33 32 32 32 31 30 29 28 28 27 26 26 27 27 26 26 26 25
22 22 23 25 26 27 29 31 32 32 32 32 32 32 32 31 31 31 32 32 32 33 33 34 36 37 38 39 39 39 38 38 38 39 41 42 43 44 44 43 42 42 41 40 40 39 39 39 38 38 37 37 37 37 37 37 37 37 37 36 36 36 36 36 35 35 34 33 33 33 32 31 30 29 27 27 26 26 26 26 27 27 27 26 25
24 24 26 28 29 30 31 32 33 33 33 33 33 34 34 33 31 31 31 32 33 33 34 35 35 36 37 37 38 38 38 38 38 38 39 40 41 43 44 45 44 44 43 42 41 41 41 40 39 39 39 38 38 38 38 38 38 38 37 37 37 36 36 36 35 35 34 34 33 32 32 30 29 28 27 26 25 25 25 25 25 25 25 25 25
28 29 31 31 30 31 31 32 33 33 33 34 34 34 34 34 32 32 32 32 33 34 34 35 35 36 36 37 37 38 39 39 39 39 39 39 40 41 43 44 44 45 44 44 43 42 42 41 41 40 40 40 40 40 40 40 39 38 38 37 37 37 36 36 35 35 34 34 32 32 31 29 28 27 26 25 24 24 23 23 23 23 23 24 24
32 33 33 32 31 32 32 32 33 33 34 34 34 34 34 34 34 34 34 34 34 35 35 36 36 36 36 37 37 38 39 40 40 40 41 41 41 41 41 42 43 43 43 44 43 43 42 42 42 41 41 41 41 42 42 42 41 40 39 38 38 37 37 36 35 35 34 33 32 30 29 28 27 27 26 25 24 24 23 22 22 22 22 22 22
33 34 33 33 33 33 33 33 33 34 34 34 34 34 35 35 35 35 35 35 35 36 36 37 37 37 37 37 38 38 39 39 40 40 41 41 41 41 41 40 40 41 41 41 42 42 43 43 43 42 42 42 42 42 43 43 42 41 40 39 38 37 37 35 35 34 34 33 32 30 29 28 27 26 25 25 24 23 23 22 22 21 21 21 21
34 34 34 34 33 33 33 34 34 34 34 34 34 34 35 35 35 35 35 35 35 35 36 37 37 37 37 37 37 38 38 38 39 39 40 40 41 42 42 41 41 40 40 40 41 42 42 43 44 43 43 43 43 43 44 44 43 42 41 40 39 38 37 36 35 34 33 33 31 30 29 28 27 26 26 25 25 24 23 23 22 22 21 21 21
34 34 33 33 33 33 34 34 34 34 34 33 33 33 33 33 34 34 34 34 34 34 35 36 37 37 36 36 36 36 36 37 38 38 39 40 40 41 41 42 42 42 41 41 42 42 42 43 45 45 44 44 44 44 45 44 43 42 41 40 39 38 37 36 35 34 33 33 32 30 29 28 27 27 27 27 26 25 25 24 23 22 22 21 21
33 33 33 33 33 33 33 33 33 33 33 33 33 33 32 32 32 32 33 33 33 34 34 35 35 36 36 36 36 35 35 36 37 37 37 38 39 40 41 41 42 43 43 42 42 42 42 43 44 45 45 45 45 45 45 45 43 42 41 40 39 38 37 36 35 35 34 33 32 31 30 29 28 27 27 27 27 26 26 26 25 24 23 22 22
32 32 32 32 32 32 32 32 32 33 33 33 33 33 32 32 32 32 32 32 32 33 33 34 34 35 35 36 36 35 34 34 35 35 36 38 39 39 39 39 40 40 41 41 41 41 42 43 44 45 45 45 46 46 46 45 44 43 42 41 39 37 36 35 35 35 34 34 33 32 31 30 29 28 28 27 27 27 27 26 26 26 25 25 24
31 31 31 31 31 31 31 31 31 32 32 32 32 31 31 31 30 30 30 30 30 31 32 32 33 33 34 35 35 35 35 34 31 30 33 37 38 37 36 37 37 38 39 39 40 40 40 41 42 44 45 46 46 46 46 46 45 43 42 40 39 37 36 35 35 35 34 34 33 33 32 31 30 30 29 28 28 27 27 27 27 27 27 27 27
30 30 30 30 30 30 29 29 28 28 28 28 28 28 28 28 28 28 28 28 29 29 30 30 31 31 32 32 33 34 35 34 31 29 32 36 38 37 36 37 36 36 37 38 38 38 38 39 40 43 45 47 48 47 46 45 44 43 41 40 39 37 36 35 34 34 34 33 33 33 33 32 31 31 30 30 29 28 28 28 28 28 28 28 28
28 28 27 27 27 26 26 26 26 25 25 25 25 26 26 26 27 27 27 28 28 29 29 29 30 30 30 30 31 32 33 33 33 33 34 36 37 37 36 35 35 35 36 36 36 37 37 37 39 41 42 44 45 46 46 45 44 43 41 40 39 38 36 35 34 33 33 32 33 33 33 33 32 32 31 31 31 30 30 30 29 29 30 30 30
25 25 25 25 25 25 25 26 26 26 26 26 27 27 28 28 28 29 29 30 30 30 31 31 31 31 31 31 31 31 32 32 33 34 35 36 36 36 35 34 35 36 37 37 38 38 37 38 40 41 39 38 37 38 40 42 42 42 41 40 39 38 36 35 34 34 34 34 33 33 33 33 33 33 33 33 33 32 31 31 31 31 31 31 31
24 24 25 25 25 26 27 27 28 28 29 29 30 30 31 31 31 32 32 33 33 33 33 33 34 34 34 34 34 34 34 34 34 35 35 36 36 36 36 36 36 36 36 36 36 37 37 37 37 38 38 36 34 33 34 36 38 38 38 39 39 38 37 36 35 35 34 34 34 34 34 34 34 34 34 35 35 34 34 33 33 33 33 32 32
25 25 26 27 27 28 29 30 31 31 32 32 33 33 34 34 34 35 35 36 36 36 36 36 36 36 37 37 37 37 37 37 37 37 37 38 38 38 38 38 38 38 37 36 36 36 37 36 35 34 34 34 34 33 34 36 37 37 38 37 37 37 37 37 37 36 35 35 34 34 33 33 33 34 34 35 35 35 36 35 35 34 34 34 34
Wind_Direction
258 258 254 256 259 257 257 256 249 246 248 250 253 254 251 247 245 245 246 246 245 243 240 237 237 239 239 238 236 236 238 238 237 237 239 240 242 242 242 243 242 242 243 244 246 247 249 250 252 255 257 260 262 263 262 261 261 261 262 264 267 270 272 274 275 276 277 278 279 279 279 279 279 280 281 281 281 281 281 280 278 275 275 278 281
253 252 254 259 259 252 249 251 249 247 248 250 254 258 257 254 250 247 246 247 246 243 241 239 237 238 241 240 238 237 239 242 243 244 243 243 244 244 244 243 242 243 245 247 248 249 251 253 255 257 257 258 261 261 259 258 259 260 261 264 268 272 275 277 279 280 280 280 280 280 280 281 282 281 280 280 279 279 279 278 277 277 277 278 279
248 247 252 258 258 249 243 244 246 246 245 246 249 254 258 258 254 250 247 247 248 244 240 238 237 237 240 242 242 240 239 242 245 248 248 248 247 247 247 246 245 245 246 248 250 251 252 254 256 257 256 257 259 259 257 256 257 258 262 266 270 273 276 279 281 282 283 283 283 283 283 284 283 281 280 279 277 276 275 276 278 280 280 280 281
243 242 245 250 252 246 240 241 242 240 241 243 245 246 252 256 255 252 249 248 248 246 242 238 235 235 237 241 245 245 243 242 244 247 249 251 251 250 249 249 248 248 247 249 251 252 253 254 255 256 255 256 257 257 256 255 256 259 263 267 271 274 277 280 283 285 286 286 285 285 285 285 283 281 281 280 279 277 275 275 277 279 280 281 284
240 240 239 242 246 244 239 238 238 237 237 240 243 243 246 251 254 254 252 249 247 246 245 242 238 235 234 236 240 244 245 244 244 245 247 250 252 253 252 251 251 251 251 251 252 253 254 254 254 255 255 255 256 256 255 255 257 259 263 268 271 274 277 280 283 285 286 286 285 285 285 285 283 282 281 280 279 278 277 276 276 278 280 282 283
241 240 238 239 243 241 235 235 240 238 234 235 239 242 245 247 250 251 251 250 247 246 245 243 242 240 238 237 238 241 243 244 245 246 246 248 250 252 252 252 251 251 252 253 254 254 254 254 254 255 255 254 254 255 255 255 256 259 263 267 270 273 276 278 280 282 284 284 283 283 283 283 282 282 281 280 278 277 277 277 277 278 280 280 281
240 240 237 234 234 233 231 236 242 241 237 237 239 242 245 246 247 247 247 248 248 247 246 245 244 243 243 243 243 242 243 244 245 246 246 247 247 248 249 249 249 249 249 251 252 253 253 253 253 254 254 254 254 254 255 255 257 260 262 265 268 271 273 275 278 279 279 279 279 280 281 281 281 280 279 278 277 276 276 276 278 279 278 278 280
230 231 228 226 226 229 234 241 245 246 245 243 240 241 244 244 243 242 241 242 244 246 249 249 249 249 249 249 249 249 249 249 248 247 246 246 245 245 245 245 245 244 244 246 248 250 252 253 254 256 257 257 256 257 258 259 261 262 264 265 267 270 272 274 276 278 278 278 277 278 279 279 279 279 278 278 277 277 277 278 279 279 278 278 280
218 220 219 221 225 230 236 241 244 241 239 239 240 244 246 243 240 239 238 240 241 244 247 250 252 254 255 256 256 255 256 256 255 254 252 251 249 247 246 245 244 243 242 243 244 247 250 253 255 257 259 260 260 260 262 263 265 265 266 268 270 271 273 275 276 278 279 280 280 279 279 278 278 279 279 279 280 280 280 280 280 279 278 278 280
206 212 216 221 227 231 233 237 239 238 238 243 249 254 254 249 246 247 246 247 247 246 247 250 252 255 257 260 262 262 261 261 261 262 263 262 260 257 255 253 253 253 252 252 252 252 252 254 256 258 260 262 263 264 265 266 267 268 269 271 273 274 275 275 277 278 279 281 281 280 280 280 279 279 279 279 280 281 280 281 282 282 280 280 281
205 210 215 221 226 231 232 235 240 242 244 249 255 258 257 251 245 245 248 254 257 255 252 252 254 256 258 259 261 264 266 265 265 264 263 261 260 259 259 258 259 262 263 264 263 263 262 261 262 263 264 266 267 268 269 269 270 270 270 271 272 273 273 274 276 276 278 280 280 281 282 281 279 279 279 279 279 279 280 283 285 284 283 282 282
228 227 225 226 228 233 236 239 241 244 245 248 253 257 255 247 240 239 246 256 262 262 262 261 261 262 263 261 259 261 263 264 263 261 260 260 260 260 261 262 262 263 264 265 264 263 265 266 266 265 266 266 266 266 267 268 269 270 270 269 269 270 272 274 275 275 275 275 276 278 281 282 281 281 281 281 281 282 284 285 284 283 283 283 282
274 263 256 251 248 246 243 239 237 241 247 250 252 254 253 248 244 242 250 259 264 268 270 271 272 272 274 271 264 261 261 261 261 261 261 263 264 263 263 263 263 262 262 262 261 262 265 267 267 266 266 265 265 264 264 265 266 267 267 266 266 267 270 272 274 275 274 273 273 275 275 276 278 280 281 282 284 285 285 284 282 282 282 282 281
290 288 281 271 260 251 246 243 241 245 252 256 258 258 256 252 250 253 263 269 271 273 274 276 282 285 288 285 278 270 263 260 260 260 261 263 266 265 265 265 264 263 261 260 260 261 263 264 266 267 268 268 267 266 265 265 265 267 267 267 268 269 270 272 274 275 276 277 277 277 275 272 272 274 277 279 282 284 285 284 283 282 280 280 279
265 269 272 270 264 258 255 255 253 253 257 262 268 270 267 263 265 275 282 278 275 276 278 282 288 291 293 293 289 282 273 266 263 262 262 264 267 268 267 265 265 264 262 260 260 261 262 261 264 267 268 270 272 271 270 269 268 268 269 270 272 272 272 272 274 276 277 277 277 278 279 277 274 273 273 274 276 279 280 281 282 281 280 280 279
258 255 259 263 265 264 265 266 263 261 260 262 270 280 283 285 291 294 291 284 283 286 290 291 291 290 290 291 290 286 281 275 273 272 273 275 277 277 273 268 266 266 266 264 263 263 263 261 262 265 269 272 275 276 276 275 273 271 271 272 272 271 271 272 272 273 274 275 277 279 281 281 279 276 274 273 274 277 278 277 277 279 279 279 279
279 271 266 268 274 276 276 273 267 266 269 273 285 301 308 307 302 298 295 294 297 301 302 301 297 292 290 290 290 289 286 283 282 284 286 286 286 287 286 280 276 275 276 275 272 270 271 269 266 267 270 273 275 276 278 278 277 274 272 272 271 270 271 272 271 271 273 275 279 282 282 281 280 279 278 276 276 277 279 278 277 278 279 278 277
302 294 286 289 297 299 293 283 280 291 306 308 311 315 313 302 290 287 290 297 303 308 309 307 304 299 294 291 288 287 286 286 286 287 287 284 283 286 289 292 292 290 290 290 287 285 284 282 277 275 275 276 278 280 282 283 284 280 274 269 268 270 272 270 270 272 275 277 279 281 281 281 280 280 280 280 279 279 280 278 276 275 275 276 275
308 305 303 306 313 321 328 334 340 342 333 317 305 297 290 285 283 283 287 293 299 302 303 302 300 297 293 289 287 285 285 286 288 288 286 281 277 277 280 285 289 290 292 293 293 292 290 286 284 281 279 280 281 283 284 287 290 290 281 270 264 264 266 266 268 273 276 278 280 281 282 283 283 282 282 282 281 281 279 278 275 271 271 272 272
305 309 312 311 310 316 327 337 342 332 310 294 287 284 283 286 289 291 293 295 295 295 293 291 289 288 287 286 285 285 286 287 288 289 288 283 278 274 275 278 281 285 288 288 288 287 286 285 284 283 283 283 283 283 285 287 290 294 291 279 268 261 259 261 266 273 277 279 282 282 282 283 282 282 281 280 281 281 280 279 277 272 269 269 270
294 296 299 298 297 299 304 305 295 284 280 280 283 286 289 291 292 292 293 292 290 287 285 285 285 285 284 284 284 284 285 285 286 287 288 287 286 283 281 280 280 282 283 284 284 284 284 283 284 284 285 285 285 285 286 287 289 291 292 288 280 272 267 265 268 274 277 280 282 282 283 283 281 280 281 281 283 284 283 282 279 274 270 270 271
283 280 279 279 279 279 278 276 272 272 274 279 283 287 289 289 289 289 288 287 286 285 284 284 284 283 283 282 282 282 284 286 287 288 289 288 287 286 285 283 281 279 277 277 278 279 280 281 281 282 283 284 285 286 286 286 288 289 289 287 285 282 279 277 276 277 279 281 282 282 283 284 284 285 285 285 286 286 285 284 281 277 274 272 272
290 287 285 283 284 285 286 288 289 290 292 294 294 292 291 289 287 286 285 285 285 285 286 286 286 286 286 284 283 282 282 282 284 285 286 286 285 283 282 281 280 278 275 272 271 272 273 275 276 278 280 281 283 284 284 285 286 288 289 287 285 284 283 282 281 281 282 283 283 284 284 284 286 287 287 286 285 285 285 286 284 281 279 277 275
312 308 304 301 300 301 302 302 301 300 298 297 295 293 291 290 289 288 286 285 285 285 286 286 286 285 285 284 283 282 280 279 278 278 278 278 279 278 277 276 276 275 275 274 273 272 271 272 273 275 276 278 280 281 282 284 285 286 287 287 286 285 284 284 284 283 284 286 286 286 286 284 284 285 284 283 283 283 285 287 285 282 280 280 280
329 324 318 314 309 304 300 296 294 292 290 288 287 286 285 284 284 284 284 283 283 282 282 281 281 281 281 281 280 279 279 278 277 276 276 275 275 275 275 275 274 274 275 275 275 275 275 275 274 275 275 276 277 279 281 283 285 286 287 287 287 286 285 285 285 285 285 286 286 286 286 284 283 283 282 282 281 281 283 284 283 282 281 281 282
331 326 321 315 308 301 296 292 289 286 284 282 281 280 280 280 280 280 280 280 279 278 278 277 277 277 277 277 278 278 278 278 278 278 278 278 278 278 279 279 279 279 279 278 278 278 278 278 277 277 277 277 277 278 280 282 283 285 286 286 287 287 287 286 286 286 286 286 285 285 285 284 283 282 282 282 280 280 281 282 282 282 282 282 281
326 321 317 313 309 305 301 299 297 293 289 286 282 279 278 278 279 279 278 278 277 277 276 276 275 275 275 276 277 278 279 279 280 280 280 280 281 282 283 284 284 284 283 283 282 281 281 281 281 281 281 280 279 279 279 280 281 282 284 285 286 286 287 287 287 287 287 286 285 285 285 285 284 284 284 283 282 281 281 281 281 280 279 279 279
323 315 310 307 307 306 305 305 303 300 296 291 286 281 277 275 274 275 275 275 276 276 276 276 275 275 275 275 276 277 278 279 280 280 281 281 282 283 284 284 284 284 283 283 284 284 284 284 284 284 285 285 285 285 284 283 283 283 284 285 286 286 287 287 288 288 288 287 286 286 285 285 285 285 285 285 284 283 281 280 280 278 276 277 277
323 317 310 304 302 302 303 304 305 303 301 296 291 286 283 278 275 272 270 270 271 272 273 274 275 275 275 275 274 274 275 275 277 278 279 281 283 284 284 285 284 284 284 284 284 285 285 285 285 285 285 286 286 287 288 288 288 288 288 289 289 290 290 290 290 290 289 288 287 286 285 284 284 285 285 285 285 284 283 282 281 280 278 277 276
310 309 308 303 300 300 300 301 302 303 303 300 296 292 289 287 283 278 274 271 271 271 272 273 273 274 275 275 274 274 274 274 275 277 278 280 281 282 283 284 284 285 285 286 286 286 287 287 288 288 288 288 288 288 288 288 289 289 290 291 292 292 292 293 293 292 292 290 289 287 286 285 283 283 283 283 284 284 284 284 283 282 281 279 276
294 293 293 294 296 298 300 301 301 300 299 298 297 295 293 291 289 286 283 279 276 274 274 274 274 274 274 273 274 275 276 278 278 279 280 281 282 282 283 283 284 285 285 286 286 287 288 289 289 290 291 291 291 290 289 289 288 288 289 289 290 291 292 292 293 293 293 292 290 288 287 286 284 283 282 281 281 282 282 283 283 282 282 281 278
287 285 283 286 290 293 296 299 300 299 297 295 294 294 293 292 291 289 288 286 283 280 278 277 276 275 274 273 273 274 275 278 279 281 282 283 283 284 284 284 285 285 285 286 286 287 288 289 290 290 291 291 292 292 291 291 290 290 289 289 289 289 289 290 290 291 291 291 290 289 288 287 285 283 281 279 278 278 279 281 281 281 283 283 282
283 283 282 286 290 292 293 296 297 297 296 294 292 291 291 290 290 289 288 287 286 285 284 282 281 279 277 275 274 273 274 275 277 279 281 282 283 284 285 285 286 286 285 286 286 287 288 289 289 290 291 291 291 292 292 292 292 292 292 292 292 291 290 288 288 288 289 289 290 290 290 288 285 281 278 276 276 276 277 278 279 280 281 282 282
278 279 281 286 290 292 292 294 295 295 294 293 290 289 288 287 287 287 287 287 286 285 284 284 283 282 280 278 276 274 274 274 275 276 277 279 281 282 283 284 285 285 286 286 287 287 288 288 289 289 290 290 291 291 291 292 292 293 293 294 294 293 292 291 289 288 288 288 288 289 290 289 287 283 277 272 272 273 275 277 277 278 278 278 279
273 273 277 283 288 289 290 292 292 292 292 291 289 287 286 286 285 286 287 288 287 285 283 282 282 283 282 281 279 277 275 274 273 274 275 276 278 279 280 281 282 283 284 285 286 287 287 286 287 287 288 289 289 290 291 291 292 292 293 294 294 294 294 293 292 291 290 288 288 289 289 290 289 285 280 275 272 272 274 276 277 278 279 278 277
268 269 275 283 287 288 288 289 290 289 290 290 290 288 286 285 285 285 285 286 286 284 282 281 280 280 280 280 280 279 279 277 276 275 275 276 277 278 280 281 281 282 282 283 284 284 284 284 284 284 285 286 287 288 289 289 290 290 291 292 293 294 294 294 294 293 292 291 290 290 290 289 289 286 281 277 274 274 274 275 276 277 277 276 276
269 271 279 285 287 286 286 286 287 287 287 289 289 289 286 285 284 283 283 282 281 281 280 280 280 280 279 278 277 277 278 279 280 279 279 279 279 280 281 282 282 283 283 283 282 282 282 281 281 281 282 283 284 285 286 286 287 289 290 291 292 293 293 294 294 294 293 293 292 292 291 289 288 286 282 278 275 274 274 274 274 274 275 274 275
270 276 285 288 287 285 284 284 285 286 286 287 287 287 286 285 283 281 280 279 278 278 278 279 280 280 280 278 276 274 274 276 278 279 280 281 281 282 282 282 283 283 283 283 282 282 281 280 280 280 281 282 282 283 283 284 285 287 288 290 291 292 292 293 293 293 293 293 293 293 292 290 288 285 282 279 277 275 274 274 274 274 274 274 274
272 280 288 291 288 286 284 284 284 285 285 285 285 284 284 284 283 281 279 278 277 276 276 276 277 277 277 277 277 276 276 276 278 279 281 282 283 283 284 284 283 283 283 283 283 283 282 281 281 281 281 282 282 282 283 283 284 285 286 287 289 290 290 291 292 292 292 292 292 292 292 290 287 284 281 279 277 275 274 273 273 274 274 273 273
278 285 289 289 287 285 284 284 284 284 284 283 283 282 282 282 282 281 279 277 276 275 274 274 274 274 274 274 275 275 276 277 279 280 282 283 284 284 285 284 284 284 284 284 285 285 284 283 282 282 282 283 283 283 283 283 284 284 285 285 286 287 288 288 289 290 290 291 291 291 290 288 286 283 280 278 276 275 273 272 271 272 272 271 271
283 285 286 285 284 284 284 284 284 284 283 283 282 282 281 281 280 279 278 277 276 275 275 274 273 273 273 273 274 274 275 276 278 280 281 282 283 284 284 284 283 284 284 285 285 285 285 285 284 284 283 283 283 283 283 283 284 285 285 285 285 285 285 286 286 287 288 288 288 288 287 286 284 282 280 277 276 274 273 272 271 271 270 269 269
283 283 283 283 284 284 284 284 284 284 283 283 283 282 281 280 279 278 278 277 276 276 276 275 275 275 275 275 275 276 277 278 279 280 280 281 281 282 282 283 282 282 283 282 282 282 283 283 284 283 283 283 283 283 283 283 284 285 284 283 283 283 283 283 283 283 283 284 284 284 284 284 284 283 281 279 277 275 273 272 270 269 268 268 268
282 282 283 283 284 284 284 284 284 283 283 283 282 282 281 280 279 279 278 278 278 277 277 277 278 278 277 277 278 279 280 280 281 281 281 282 282 282 283 283 283 283 283 282 282 282 281 281 281 282 282 282 282 282 282 283 283 283 282 282 281 281 281 280 280 279 280 280 280 281 281 282 282 282 281 280 278 277 275 273 271 268 267 265 265
282 282 282 282 282 282 282 282 282 283 283 283 282 282 282 281 280 279 278 279 279 280 280 281 281 281 281 281 281 281 281 281 281 282 283 283 283 283 283 283 283 283 283 283 283 283 282 281 281 281 282 282 282 282 281 281 281 280 280 280 279 279 278 278 277 277 277 278 278 279 279 279 279 279 279 279 278 276 275 273 272 270 268 266 264
281 281 281 281 281 281 281 281 282 282 282 283 283 283 283 282 281 281 280 280 280 280 281 282 282 283 284 284 284 284 283 282 283 286 287 286 284 283 283 283 283 283 283 282 282 282 281 282 282 282 281 282 281 281 281 280 279 278 278 278 277 277 276 276 275 275 275 276 276 277 277 277 278 278 277 276 275 274 273 272 271 269 268 267 265
281 282 282 282 282 282 282 282 283 283 283 283 283 283 283 283 283 283 283 283 282 282 282 283 283 284 285 285 286 286 286 285 286 289 288 285 284 283 284 283 283 282 282 281 281 281 280 280 280 281 281 280 280 279 279 279 278 277 276 276 275 275 274 274 274 274 274 274 275 275 276 276 277 277 277 276 274 273 272 271 269 268 267 266 265
282 283 283 284 284 285 285 285 285 285 285 285 285 285 286 286 287 287 288 288 287 286 286 286 286 286 286 287 287 287 287 287 286 282 279 279 281 283 283 283 283 281 280 280 280 281 281 281 281 281 280 279 279 278 277 277 277 276 275 274 274 274 273 273 273 273 273 274 274 274 274 275 275 275 275 275 274 273 271 270 269 267 266 265 264
282 283 284 284 286 287 288 289 289 289 289 290 290 290 291 291 291 292 292 291 291 291 290 289 289 288 288 287 287 287 287 287 286 283 280 281 283 284 283 282 281 280 279 279 279 280 282 283 284 283 282 280 278 277 276 276 275 274 274 274 273 273 272 272 272 271 271 271 271 272 273 273 273 273 272 272 271 271 271 270 269 267 266 265 264
281 282 283 285 287 289 290 291 291 292 293 293 293 293 293 293 293 293 293 292 292 291 291 291 290 290 289 288 287 287 286 286 286 285 285 285 285 285 283 282 280 279 279 278 278 278 280 282 283 284 283 281 280 279 278 277 276 275 274 274 273 272 272 271 271 270 270 269 270 270 271 272 273 273 272 272 271 271 270 270 269 267 266 265 264
282 284 286 287 289 290 291 291 291 292 292 292 292 292 291 291 291 291 290 290 290 289 289 289 289 289 289 289 288 287 287 285 285 284 284 284 284 284 283 282 281 280 279 279 278 279 279 279 278 278 278 276 276 276 277 276 276 277 277 276 275 274 273 272 271 271 271 271 271 271 271 272 272 272 272 272 271 271 270 269 268 267 266 265 264
288 289 290 290 290 290 290 290 290 290 290 290 290 290 290 289 289 288 288 288 288 288 288 288 289 289 289 289 289 288 288 287 286 285 284 284 283 283 282 281 281 280 279 279 279 279 278 275 273 273 274 273 272 272 272 272 273 275 277 278 278 276 275 273 272 271 270 269 270 270 270 269 269 269 269 269 269 269 268 268 267 267 266 265 265
Height
5888 5889 5890 5891 5892 5893 5894 5894 5895 5895 5895 5895 5895 5896 5897 5898 5898 5899 5899 5900 5900 5901 5902 5902 5904 5905 5906 5907 5908 5909 5910 5910 5911 5912 5912 5913 5913 5914 5914 5915 5916 5917 5918 5919 5920 5921 5922 5923 5923 5923 5923 5924 5925 5925 5925 5926 5926 5926 5926 5926 5926 5926 5926 5926 5927 5926 5926 5925 5925 5924 5924 5923 5922 5922 5921 5921 5920 5920 5919 5918 5917 5917 5916 5915 5915
5885 5887 5888 5888 5889 5890 5891 5891 5892 5893 5894 5894 5894 5894 5895 5896 5896 5897 5898 5898 5899 5899 5900 5900 5901 5902 5904 5905 5906 5907 5908 5909 5910 5910 5911 5911 5911 5911 5912 5913 5914 5915 5916 5917 5917 5918 5920 5920 5921 5920 5921 5922 5922 5922 5923 5923 5923 5924 5924 5924 5924 5924 5924 5924 5924 5924 5924 5923 5923 5922 5921 5921 5920 5919 5919 5919 5918 5917 5917 5916 5915 5914 5914 5913 5913
5882 5883 5885 5886 5887 5887 5888 5888 5889 5890 5892 5892 5892 5892 5893 5894 5894 5895 5896 5896 5897 5897 5898 5898 5899 5899 5901 5902 5904 5905 5905 5906 5907 5908 5909 5909 5909 5909 5910 5911 5912 5912 5913 5913 5914 5915 5916 5917 5917 5917 5918 5919 5919 5919 5920 5920 5921 5921 5921 5921 5921 5921 5921 5921 5921 5921 5921 5921 5920 5919 5919 5918 5917 5917 5916 5916 5916 5915 5914 5913 5913 5912 5911 5911 5910
5878 5879 5881 5883 5884 5885 5886 5886 5887 5888 5889 5890 5890 5890 5891 5891 5892 5893 5894 5894 5895 5895 5895 5896 5896 5897 5898 5899 5901 5902 5903 5903 5904 5906 5907 5907 5907 5908 5908 5908 5909 5910 5910 5910 5911 5912 5913 5914 5914 5914 5915 5916 5916 5917 5917 5917 5918 5918 5918 5918 5918 5918 5918 5918 5918 5918 5918 5918 5917 5917 5916 5915 5915 5914 5913 5913 5913 5913 5912 5911 5910 5909 5909 5909 5908
5876 5876 5878 5880 5882 5883 5884 5885 5885 5885 5886 5888 5888 5888 5888 5889 5890 5890 5891 5892 5892 5893 5893 5894 5894 5895 5896 5896 5897 5899 5899 5900 5901 5902 5903 5904 5905 5905 5905 5906 5907 5907 5907 5907 5907 5908 5909 5910 5910 5910 5912 5913 5914 5914 5914 5914 5915 5915 5915 5915 5915 5915 5915 5915 5915 5915 5915 5915 5914 5914 5913 5912 5912 5911 5911 5910 5910 5910 5909 5908 5907 5907 5907 5907 5906
5874 5875 5875 5877 5880 5881 5882 5883 5883 5883 5884 5885 5886 5886 5886 5886 5887 5887 5888 5888 5889 5890 5891 5892 5892 5893 5893 5894 5894 5896 5896 5897 5898 5899 5900 5901 5901 5902 5902 5903 5903 5904 5904 5904 5905 5905 5906 5906 5907 5907 5908 5910 5910 5910 5911 5911 5912 5912 5912 5912 5912 5912 5912 5912 5912 5912 5912 5911 5911 5910 5910 5909 5909 5909 5908 5907 5906 5906 5906 5905 5905 5905 5905 5904 5903
5872 5874 5874 5876 5877 5879 5880 5880 5880 5880 5882 5883 5884 5884 5883 5883 5883 5883 5884 5884 5886 5887 5888 5889 5890 5891 5891 5891 5892 5893 5894 5895 5895 5896 5897 5897 5898 5898 5899 5899 5899 5900 5901 5901 5902 5902 5903 5903 5904 5904 5905 5906 5907 5907 5907 5908 5908 5909 5909 5908 5908 5908 5908 5908 5908 5908 5908 5908 5907 5906 5906 5906 5906 5905 5904 5904 5903 5903 5903 5902 5902 5902 5902 5901 5899
5870 5871 5872 5874 5875 5876 5877 5877 5877 5879 5881 5881 5880 5880 5879 5878 5878 5878 5879 5880 5882 5883 5885 5887 5888 5888 5889 5889 5890 5890 5891 5892 5893 5893 5894 5894 5894 5895 5895 5895 5896 5896 5897 5897 5898 5899 5900 5900 5901 5901 5902 5903 5903 5903 5904 5904 5905 5905 5905 5905 5905 5905 5905 5905 5905 5905 5905 5904 5904 5903 5902 5902 5902 5901 5901 5900 5900 5900 5900 5899 5899 5899 5898 5897 5896
5868 5869 5870 5871 5873 5874 5874 5874 5875 5876 5877 5877 5877 5876 5875 5875 5876 5878 5878 5879 5879 5880 5881 5883 5884 5885 5886 5887 5888 5889 5889 5890 5890 5891 5891 5892 5892 5893 5893 5893 5893 5893 5893 5894 5894 5895 5896 5897 5897 5898 5898 5899 5900 5900 5901 5901 5901 5902 5902 5902 5901 5901 5901 5901 5901 5901 5901 5900 5900 5900 5899 5899 5899 5898 5897 5897 5897 5897 5896 5896 5896 5895 5895 5894 5893
5866 5867 5869 5870 5871 5871 5872 5872 5873 5874 5875 5875 5875 5876 5875 5876 5879 5880 5880 5880 5879 5879 5879 5880 5880 5881 5882 5884 5885 5886 5887 5888 5888 5889 5890 5890 5891 5891 5891 5892 5893 5893 5894 5894 5894 5894 5894 5894 5895 5895 5896 5896 5897 5897 5897 5897 5898 5898 5898 5898 5898 5898 5897 5897 5897 5897 5897 5896 5896 5896 5896 5896 5895 5894 5894 5893 5893 5893 5892 5892 5892 5892 5891 5891 5890
5865 5866 5867 5868 5869 5870 5870 5871 5872 5873 5874 5874 5874 5874 5875 5876 5877 5877 5877 5878 5879 5879 5879 5879 5878 5878 5879 5880 5882 5883 5884 5886 5886 5887 5886 5886 5886 5887 5888 5890 5892 5893 5894 5894 5894 5894 5893 5893 5893 5893 5893 5894 5894 5894 5894 5894 5894 5894 5894 5894 5894 5893 5893 5893 5893 5893 5892 5892 5892 5892 5892 5892 5891 5890 5890 5889 5888 5888 5888 5888 5888 5887 5886 5886 5885
5866 5866 5867 5867 5868 5869 5870 5871 5872 5873 5873 5873 5872 5873 5873 5873 5873 5874 5875 5877 5878 5878 5878 5878 5878 5877 5876 5877 5878 5880 5881 5882 5882 5882 5881 5881 5883 5884 5886 5888 5889 5889 5889 5889 5890 5890 5890 5890 5890 5890 5890 5890 5890 5890 5890 5890 5889 5889 5889 5889 5889 5888 5888 5888 5888 5888 5888 5888 5888 5889 5889 5888 5888 5887 5886 5885 5884 5884 5884 5884 5883 5881 5881 5881 5880
5867 5868 5868 5868 5869 5869 5870 5871 5871 5871 5871 5870 5870 5871 5872 5872 5872 5873 5874 5875 5877 5877 5877 5877 5877 5876 5875 5875 5876 5877 5878 5878 5877 5877 5877 5878 5881 5883 5884 5885 5885 5885 5885 5885 5885 5886 5886 5886 5886 5886 5886 5885 5885 5885 5885 5885 5885 5885 5884 5884 5884 5884 5884 5884 5884 5883 5883 5883 5883 5885 5884 5883 5883 5883 5882 5881 5881 5881 5880 5879 5878 5877 5877 5876 5876
5866 5867 5868 5868 5868 5869 5870 5870 5870 5870 5869 5869 5869 5870 5871 5872 5872 5872 5872 5873 5876 5877 5877 5877 5876 5875 5874 5874 5874 5874 5874 5874 5873 5873 5874 5876 5877 5880 5882 5883 5883 5882 5881 5881 5881 5881 5881 5881 5882 5882 5882 5881 5881 5880 5880 5880 5880 5880 5880 5880 5880 5880 5880 5881 5880 5879 5879 5879 5879 5880 5879 5878 5878 5877 5877 5877 5877 5876 5876 5875 5874 5873 5873 5872 5871
5864 5865 5866 5866 5867 5867 5868 5869 5869 5869 5869 5869 5869 5870 5871 5872 5872 5872 5872 5874 5876 5877 5876 5876 5874 5873 5873 5873 5873 5872 5872 5870 5870 5871 5872 5874 5875 5876 5878 5879 5879 5878 5877 5876 5876 5876 5876 5876 5877 5878 5878 5877 5877 5876 5876 5876 5875 5876 5876 5876 5877 5877 5877 5877 5876 5874 5874 5874 5874 5875 5874 5873 5873 5872 5872 5873 5873 5871 5871 5870 5870 5868 5867 5867 5867
5863 5864 5865 5865 5866 5867 5868 5868 5868 5868 5869 5869 5869 5870 5870 5870 5871 5872 5873 5874 5875 5875 5874 5873 5872 5871 5871 5871 5871 5870 5869 5868 5868 5870 5872 5874 5873 5873 5873 5874 5874 5874 5873 5873 5872 5872 5872 5872 5873 5873 5874 5874 5873 5872 5871 5870 5870 5871 5872 5872 5873 5873 5873 5874 5872 5869 5868 5868 5869 5870 5870 5869 5868 5868 5867 5868 5868 5867 5865 5864 5864 5863 5862 5863 5863
5864 5865 5865 5866 5867 5867 5867 5867 5868 5868 5869 5869 5869 5869 5869 5869 5870 5871 5873 5873 5872 5872 5871 5870 5870 5870 5869 5869 5869 5868 5867 5866 5867 5869 5872 5873 5872 5870 5869 5869 5870 5870 5870 5869 5869 5869 5868 5868 5868 5869 5869 5870 5869 5868 5866 5864 5865 5867 5867 5867 5868 5868 5870 5869 5865 5863 5863 5863 5865 5866 5865 5865 5864 5863 5862 5862 5862 5862 5861 5859 5859 5858 5856 5857 5857
5864 5865 5866 5867 5867 5868 5868 5868 5868 5868 5867 5867 5868 5869 5869 5870 5871 5872 5872 5871 5870 5870 5869 5869 5868 5868 5868 5867 5867 5866 5865 5865 5866 5868 5870 5871 5870 5868 5867 5867 5866 5866 5866 5866 5865 5865 5865 5864 5864 5865 5865 5865 5864 5864 5862 5860 5860 5861 5862 5861 5862 5864 5866 5863 5859 5859 5859 5859 5860 5861 5860 5860 5859 5858 5858 5857 5856 5857 5856 5854 5853 5851 5850 5850 5850
5865 5866 5866 5867 5867 5867 5867 5867 5865 5865 5865 5867 5868 5869 5870 5870 5870 5870 5869 5868 5868 5867 5867 5867 5867 5866 5866 5865 5865 5864 5863 5863 5863 5865 5866 5867 5867 5866 5865 5865 5864 5863 5863 5862 5862 5861 5861 5860 5860 5861 5861 5862 5861 5860 5858 5856 5855 5855 5854 5854 5856 5859 5859 5855 5854 5855 5855 5855 5856 5855 5854 5854 5854 5853 5853 5851 5850 5850 5850 5848 5847 5845 5844 5843 5842
5865 5865 5865 5865 5865 5864 5864 5863 5863 5863 5864 5865 5866 5867 5868 5867 5867 5866 5865 5865 5865 5865 5865 5864 5864 5864 5864 5863 5862 5861 5861 5860 5860 5860 5861 5862 5863 5863 5862 5861 5861 5860 5859 5859 5858 5857 5857 5857 5856 5856 5857 5857 5857 5855 5854 5852 5851 5850 5849 5847 5849 5852 5851 5849 5850 5851 5850 5850 5851 5850 5849 5849 5848 5848 5847 5845 5843 5843 5843 5841 5840 5840 5839 5837 5835
5863 5864 5863 5863 5862 5862 5861 5861 5862 5862 5862 5862 5862 5863 5863 5863 5863 5863 5863 5863 5862 5862 5862 5862 5861 5861 5861 5860 5859 5859 5858 5857 5857 5857 5857 5857 5858 5858 5857 5857 5856 5856 5856 5855 5854 5853 5853 5853 5852 5852 5852 5852 5852 5851 5850 5848 5847 5847 5846 5844 5844 5845 5845 5845 5847 5847 5846 5846 5846 5845 5845 5844 5843 5843 5842 5840 5838 5837 5836 5835 5834 5833 5833 5831 5830
5861 5861 5862 5861 5861 5861 5861 5861 5861 5861 5861 5860 5860 5860 5860 5860 5860 5861 5861 5861 5861 5861 5860 5860 5859 5858 5857 5857 5856 5855 5855 5854 5854 5854 5854 5853 5853 5853 5853 5852 5853 5853 5853 5852 5851 5851 5850 5849 5849 5848 5848 5848 5847 5846 5845 5844 5843 5842 5842 5841 5841 5841 5841 5841 5842 5842 5841 5841 5840 5840 5840 5839 5838 5837 5837 5835 5834 5832 5830 5828 5827 5827 5827 5826 5825
5859 5859 5860 5860 5860 5859 5859 5859 5859 5859 5859 5859 5858 5858 5858 5858 5859 5859 5859 5859 5859 5858 5858 5857 5856 5855 5854 5853 5853 5853 5852 5852 5851 5851 5850 5850 5850 5850 5850 5850 5849 5850 5850 5849 5849 5848 5848 5847 5846 5845 5844 5844 5843 5842 5841 5840 5839 5838 5837 5836 5836 5836 5836 5836 5836 5836 5835 5835 5834 5834 5834 5833 5832 5831 5830 5829 5828 5827 5825 5823 5822 5821 5821 5821 5820
5857 5857 5857 5857 5856 5855 5855 5854 5854 5855 5855 5855 5856 5856 5856 5856 5857 5857 5857 5856 5856 5856 5855 5855 5854 5853 5852 5851 5850 5850 5850 5850 5849 5849 5848 5848 5848 5848 5848 5848 5847 5847 5846 5846 5845 5845 5844 5843 5842 5841 5840 5839 5838 5837 5836 5835 5834 5833 5832 5832 5832 5832 5831 5831 5830 5830 5830 5829 5828 5828 5828 5828 5826 5825 5824 5823 5823 5821 5820 5819 5817 5817 5817 5816 5815
5853 5854 5854 5853 5853 5852 5851 5851 5851 5851 5851 5852 5852 5852 5852 5853 5853 5853 5853 5852 5852 5852 5852 5851 5851 5850 5850 5849 5848 5847 5847 5847 5846 5846 5845 5845 5845 5845 5845 5845 5844 5844 5843 5842 5841 5840 5839 5839 5838 5837 5836 5835 5834 5833 5832 5831 5830 5829 5828 5827 5827 5827 5827 5826 5826 5825 5825 5825 5823 5822 5822 5822 5820 5819 5818 5818 5817 5815 5814 5814 5813 5812 5812 5811 5810
5850 5850 5850 5850 5850 5850 5849 5849 5849 5850 5850 5850 5850 5850 5849 5849 5849 5848 5848 5848 5848 5848 5847 5847 5847 5846 5846 5845 5845 5844 5843 5843 5842 5842 5841 5841 5841 5840 5840 5840 5840 5839 5838 5838 5837 5836 5835 5834 5833 5832 5832 5831 5830 5829 5828 5827 5826 5825 5824 5823 5823 5822 5822 5821 5821 5820 5820 5820 5818 5817 5816 5816 5814 5813 5813 5812 5811 5810 5809 5808 5808 5807 5806 5805 5804
5847 5847 5847 5847 5847 5847 5847 5847 5847 5847 5847 5848 5848 5848 5847 5847 5847 5846 5846 5845 5845 5845 5844 5844 5844 5843 5842 5841 5841 5840 5839 5838 5838 5837 5837 5836 5836 5835 5835 5835 5834 5834 5833 5833 5832 5831 5830 5830 5829 5828 5828 5827 5826 5825 5824 5823 5822 5821 5820 5819 5819 5818 5817 5817 5816 5815 5815 5814 5814 5812 5811 5810 5809 5808 5807 5806 5805 5804 5803 5803 5802 5803 5802 5801 5799
5846 5845 5844 5844 5844 5844 5844 5844 5843 5843 5843 5844 5844 5845 5845 5845 5844 5844 5843 5843 5842 5842 5842 5841 5841 5840 5839 5839 5838 5837 5836 5835 5834 5834 5833 5832 5832 5831 5830 5830 5829 5829 5828 5828 5827 5827 5826 5826 5825 5824 5824 5823 5822 5821 5820 5819 5818 5817 5816 5815 5814 5813 5813 5812 5811 5810 5810 5809 5808 5807 5806 5805 5803 5802 5801 5800 5800 5799 5798 5797 5797 5796 5796 5795 5794
5846 5844 5843 5843 5842 5841 5841 5840 5840 5839 5839 5839 5839 5839 5840 5840 5840 5840 5840 5839 5839 5838 5838 5837 5837 5837 5836 5835 5835 5834 5833 5832 5832 5831 5830 5829 5829 5828 5827 5826 5825 5824 5823 5823 5822 5822 5821 5821 5820 5820 5819 5818 5817 5816 5815 5814 5813 5812 5811 5810 5809 5808 5808 5807 5806 5805 5804 5804 5803 5802 5801 5800 5798 5797 5796 5795 5794 5793 5792 5792 5791 5790 5789 5789 5789
5845 5844 5843 5842 5841 5840 5839 5838 5837 5836 5835 5835 5834 5834 5834 5835 5835 5835 5835 5834 5834 5833 5833 5833 5832 5832 5832 5831 5831 5830 5829 5829 5828 5827 5827 5826 5826 5825 5824 5823 5822 5820 5820 5819 5818 5817 5816 5816 5815 5815 5814 5813 5812 5811 5810 5809 5808 5807 5806 5805 5804 5803 5802 5801 5801 5800 5799 5798 5797 5796 5795 5794 5793 5792 5791 5790 5789 5787 5787 5786 5785 5784 5784 5783 5783
5844 5843 5842 5841 5840 5839 5838 5837 5836 5835 5834 5833 5832 5831 5830 5830 5829 5829 5829 5829 5828 5828 5828 5828 5827 5827 5826 5826 5826 5825 5825 5824 5823 5823 5822 5822 5821 5820 5820 5819 5818 5817 5816 5815 5814 5813 5812 5811 5810 5810 5809 5808 5807 5806 5805 5804 5803 5802 5801 5800 5799 5798 5798 5797 5796 5795 5794 5793 5792 5791 5790 5789 5788 5787 5786 5785 5784 5783 5782 5781 5780 5779 5778 5778 5778
5841 5840 5839 5838 5838 5837 5836 5836 5835 5833 5832 5831 5830 5828 5827 5826 5825 5824 5823 5823 5823 5823 5822 5822 5822 5822 5821 5821 5820 5820 5820 5819 5819 5818 5817 5817 5816 5816 5815 5815 5814 5813 5812 5811 5810 5809 5808 5807 5806 5805 5804 5803 5802 5801 5800 5799 5798 5797 5796 5795 5794 5794 5793 5792 5791 5790 5789 5788 5787 5786 5785 5784 5782 5781 5781 5780 5779 5778 5777 5777 5776 5775 5774 5773 5772
5837 5837 5836 5836 5835 5834 5834 5833 5832 5831 5830 5828 5827 5826 5825 5823 5822 5821 5820 5819 5818 5818 5817 5817 5817 5817 5817 5816 5816 5816 5815 5814 5814 5813 5812 5812 5811 5811 5811 5810 5810 5809 5808 5807 5806 5805 5804 5803 5802 5801 5800 5799 5798 5797 5795 5794 5793 5792 5791 5790 5789 5788 5787 5787 5786 5785 5784 5783 5782 5781 5780 5779 5778 5777 5776 5775 5774 5773 5773 5772 5772 5771 5770 5769 5768
5833 5832 5832 5832 5832 5831 5830 5829 5828 5828 5826 5825 5824 5823 5822 5820 5819 5818 5817 5816 5815 5814 5813 5813 5812 5812 5812 5812 5812 5811 5811 5810 5809 5808 5807 5807 5806 5806 5805 5805 5805 5804 5804 5803 5802 5801 5800 5799 5798 5796 5795 5794 5793 5792 5791 5790 5789 5787 5786 5785 5784 5783 5782 5781 5780 5780 5779 5778 5777 5776 5775 5774 5773 5772 5771 5770 5770 5769 5769 5768 5768 5767 5767 5766 5765
5828 5828 5828 5828 5828 5827 5827 5826 5825 5824 5823 5822 5821 5819 5818 5817 5816 5814 5813 5812 5811 5810 5810 5809 5808 5807 5807 5807 5807 5807 5806 5805 5804 5803 5802 5801 5801 5800 5800 5799 5799 5799 5799 5798 5798 5797 5796 5795 5793 5792 5791 5790 5789 5788 5787 5786 5785 5783 5782 5780 5779 5778 5777 5776 5775 5775 5774 5773 5773 5772 5771 5770 5769 5768 5767 5766 5765 5765 5765 5764 5764 5763 5762 5762 5761
5825 5824 5824 5824 5823 5822 5822 5822 5821 5820 5819 5818 5817 5815 5814 5813 5812 5811 5810 5808 5807 5806 5805 5804 5803 5803 5802 5802 5802 5802 5801 5800 5799 5798 5797 5796 5795 5794 5794 5793 5793 5793 5793 5793 5793 5792 5791 5790 5789 5788 5787 5785 5784 5784 5783 5781 5780 5779 5778 5776 5775 5774 5772 5771 5770 5770 5769 5769 5768 5767 5766 5765 5764 5763 5762 5761 5761 5761 5760 5760 5759 5759 5759 5758 5757
5822 5821 5821 5820 5819 5818 5818 5818 5817 5816 5815 5814 5812 5811 5810 5809 5808 5807 5806 5804 5803 5802 5800 5799 5798 5797 5797 5797 5797 5797 5796 5795 5794 5793 5792 5791 5790 5789 5788 5788 5788 5787 5787 5787 5787 5787 5786 5785 5784 5783 5782 5781 5780 5779 5778 5777 5776 5775 5774 5772 5771 5770 5768 5767 5766 5765 5764 5764 5763 5762 5762 5761 5760 5759 5759 5758 5757 5756 5756 5755 5755 5755 5754 5754 5753
5818 5817 5817 5816 5815 5815 5814 5813 5813 5812 5811 5809 5808 5807 5805 5804 5804 5803 5801 5800 5799 5797 5796 5795 5794 5792 5792 5791 5791 5791 5790 5790 5789 5788 5787 5786 5785 5784 5783 5783 5782 5782 5782 5782 5781 5781 5780 5780 5779 5778 5777 5776 5775 5774 5773 5772 5771 5770 5770 5768 5767 5766 5764 5763 5762 5761 5760 5759 5758 5758 5757 5756 5756 5755 5755 5754 5753 5752 5752 5751 5751 5750 5750 5750 5749
5814 5813 5813 5812 5811 5810 5810 5809 5808 5807 5806 5805 5804 5802 5801 5800 5799 5798 5797 5795 5794 5793 5792 5790 5789 5788 5787 5786 5785 5785 5784 5784 5784 5783 5782 5781 5780 5779 5778 5777 5777 5776 5776 5776 5776 5775 5775 5775 5774 5773 5772 5771 5770 5769 5768 5767 5767 5766 5765 5764 5763 5762 5760 5759 5758 5757 5756 5755 5754 5753 5753 5752 5752 5751 5751 5750 5749 5749 5748 5748 5747 5747 5746 5746 5746
5809 5809 5808 5807 5806 5806 5805 5804 5803 5802 5801 5800 5799 5798 5797 5796 5795 5794 5792 5791 5789 5788 5787 5786 5785 5784 5783 5782 5781 5780 5779 5778 5778 5777 5777 5776 5775 5774 5773 5772 5772 5771 5771 5770 5770 5769 5769 5769 5768 5767 5766 5765 5764 5763 5762 5761 5761 5761 5760 5759 5758 5757 5756 5755 5754 5752 5752 5750 5750 5749 5749 5748 5747 5747 5747 5746 5746 5745 5745 5745 5744 5744 5743 5743 5743
5805 5804 5803 5803 5802 5801 5800 5799 5798 5797 5796 5795 5794 5793 5792 5791 5790 5789 5787 5786 5785 5783 5782 5780 5780 5779 5778 5777 5776 5775 5774 5773 5773 5772 5771 5770 5769 5768 5768 5767 5766 5766 5765 5765 5765 5764 5763 5762 5761 5761 5760 5759 5758 5757 5756 5755 5755 5755 5755 5754 5754 5753 5752 5751 5750 5748 5747 5747 5746 5745 5744 5744 5744 5743 5743 5743 5742 5742 5742 5741 5741 5741 5740 5740 5739
5800 5800 5799 5798 5797 5796 5795 5794 5793 5792 5791 5790 5789 5788 5787 5786 5785 5784 5783 5781 5780 5778 5777 5775 5774 5774 5773 5772 5771 5770 5769 5768 5768 5767 5766 5765 5764 5763 5762 5761 5761 5760 5760 5760 5759 5759 5758 5756 5755 5754 5753 5753 5752 5751 5750 5749 5749 5749 5749 5748 5748 5748 5747 5746 5745 5744 5743 5742 5742 5741 5740 5740 5740 5740 5739 5739 5739 5738 5738 5738 5737 5737 5737 5736 5736
5796 5795 5795 5794 5792 5791 5790 5789 5788 5787 5786 5785 5784 5783 5782 5781 5780 5779 5778 5776 5775 5774 5772 5771 5769 5768 5767 5767 5766 5765 5765 5764 5762 5761 5760 5759 5758 5758 5757 5756 5755 5755 5754 5754 5753 5753 5752 5751 5749 5747 5747 5746 5745 5745 5744 5743 5743 5743 5742 5742 5742 5742 5742 5741 5740 5739 5739 5738 5737 5737 5736 5736 5736 5735 5735 5735 5734 5734 5734 5733 5733 5733 5733 5733 5732
5792 5791 5790 5789 5788 5787 5786 5784 5783 5782 5781 5780 5779 5778 5777 5776 5775 5774 5773 5771 5770 5769 5767 5766 5765 5763 5762 5761 5760 5760 5760 5759 5757 5756 5755 5754 5753 5752 5751 5750 5749 5748 5748 5748 5747 5747 5746 5744 5742 5741 5740 5739 5739 5738 5737 5737 5737 5736 5736 5736 5736 5736 5736 5735 5735 5734 5734 5733 5733 5732 5732 5732 5732 5731 5731 5731 5730 5730 5729 5729 5728 5728 5728 5728 5728
5787 5786 5785 5784 5783 5782 5781 5780 5778 5777 5776 5775 5774 5773 5771 5770 5769 5768 5767 5766 5765 5764 5762 5761 5760 5758 5757 5755 5754 5754 5754 5753 5753 5752 5751 5749 5747 5747 5746 5745 5744 5743 5742 5741 5741 5740 5739 5738 5736 5735 5734 5733 5732 5731 5730 5730 5730 5730 5729 5729 5729 5729 5729 5729 5729 5729 5728 5728 5727 5727 5727 5727 5727 5727 5727 5727 5726 5726 5725 5725 5725 5724 5724 5724 5724
5782 5781 5780 5779 5778 5777 5776 5775 5774 5773 5772 5770 5769 5768 5767 5766 5765 5764 5762 5761 5760 5759 5758 5756 5755 5754 5752 5751 5749 5748 5748 5748 5749 5749 5746 5742 5741 5741 5740 5739 5738 5737 5736 5735 5734 5734 5733 5732 5731 5729 5728 5727 5726 5725 5724 5724 5724 5723 5723 5723 5723 5723 5723 5723 5723 5723 5723 5723 5722 5722 5722 5722 5722 5722 5722 5722 5722 5722 5721 5721 5721 5720 5720 5719 5719
5778 5777 5776 5775 5774 5773 5772 5771 5770 5769 5768 5767 5765 5764 5763 5762 5761 5759 5758 5757 5756 5754 5753 5752 5751 5750 5748 5747 5746 5744 5743 5742 5744 5744 5741 5737 5736 5736 5735 5734 5732 5731 5730 5729 5728 5727 5727 5726 5725 5724 5722 5721 5719 5719 5718 5718 5717 5717 5717 5717 5717 5717 5717 5717 5718 5718 5717 5717 5717 5717 5716 5717 5717 5717 5717 5717 5717 5717 5717 5717 5717 5716 5716 5715 5715
5774 5773 5772 5771 5770 5769 5768 5767 5766 5765 5764 5763 5762 5760 5759 5758 5757 5755 5754 5752 5751 5750 5749 5747 5746 5745 5744 5742 5741 5740 5738 5737 5737 5736 5735 5733 5731 5731 5730 5729 5727 5724 5724 5723 5723 5722 5721 5721 5720 5718 5717 5715 5714 5713 5712 5712 5711 5711 5710 5710 5710 5711 5711 5712 5712 5712 5712 5711 5711 5711 5711 5711 5711 5712 5712 5712 5712 5712 5712 5712 5712 5712 5711 5711 5711
5770 5769 5768 5767 5766 5765 5764 5763 5762 5761 5760 5759 5758 5756 5755 5753 5752 5751 5749 5748 5746 5745 5743 5742 5740 5739 5738 5737 5736 5735 5733 5732 5731 5729 5728 5727 5726 5724 5724 5723 5721 5719 5718 5718 5717 5717 5716 5716 5714 5713 5711 5710 5709 5708 5706 5705 5705 5705 5705 5705 5704 5704 5705 5706 5706 5706 5706 5706 5705 5705 5705 5705 5705 5706 5706 5706 5706 5706 5706 5706 5706 5706 5706 5706 5706
5767 5766 5765 5764 5763 5762 5760 5759 5758 5757 5756 5754 5753 5751 5750 5749 5747 5746 5744 5743 5741 5740 5738 5737 5735 5733 5732 5731 5729 5728 5727 5726 5725 5724 5722 5721 5720 5719 5717 5716 5715 5714 5713 5712 5712 5711 5711 5710 5709 5707 5706 5705 5704 5704 5702 5700 5699 5699 5699 5699 5699 5699 5699 5700 5700 5700 5700 5700 5700 5700 5700 5700 5700 5700 5700 5700 5700 5700 5700 5700 5700 5700 5701 5701 5701
5763 5761 5760 5760 5759 5757 5756 5755 5753 5752 5751 5749 5748 5746 5745 5743 5742 5741 5739 5737 5736 5734 5733 5731 5730 5728 5726 5725 5724 5722 5721 5720 5719 5718 5716 5715 5714 5713 5711 5710 5709 5707 5707 5706 5706 5706 5705 5704 5702 5701 5700 5698 5698 5698 5698 5696 5695 5694 5693 5693 5693 5693 5693 5693 5693 5693 5693 5693 5694 5694 5694 5694 5694 5694 5693 5693 5694 5694 5694 5694 5694 5694 5694 5694 5695